This demonstration page uses our WeatherBlox Daily Observations layout. Learn more.

Left ArrowRight Arrow

39.51506, -84.39828

Hourly Observations for May 21, 2021

Temp ( °F °C ) Dew Point ( °F °C ) Humidity (%) Winds ( mph kmh ) Pressure ( in mb ) Visibility ( mi km ) Precip ( " mm )
12:15 am 00:15 Clear 64 17.6 61 16.2 92 92 NE 3 6 30.33 1027 7 11 0.00 0.00
12:35 am 00:35 Clear 63 17.1 62 16.5 96 96 NE 3 6 30.34 1027 10 16 0.00 0.00
12:55 am 00:55 Clear 62 16.4 61 16.1 98 98 Calm 30.34 1028 10 16 0.00 0.00
1:15 am 01:15 Clear 61 16 61 16 100 100 Calm 30.34 1028 10 16 0.00 0.00
1:35 am 01:35 Clear 61 15.9 60 15.8 99 99 Calm 30.33 1027 10 16 0.00 0.00
1:55 am 01:55 Clear 61 15.9 60 15.8 99 99 NNE 3 6 30.33 1027 10 16 0.00 0.00
2:15 am 02:15 Clear 60 15.8 60 15.4 97 97 Calm 30.33 1027 10 16 0.00 0.00
2:35 am 02:35 Clear 60 15.5 60 15.3 99 99 Calm 30.34 1027 10 16 0.00 0.00
2:55 am 02:55 Clear 59 15.2 59 15.1 99 99 NNE 3 6 30.35 1028 10 16 0.00 0.00
3:15 am 03:15 Clear 59 15 59 15 100 100 Calm 30.35 1028 10 16 0.00 0.00
3:35 am 03:35 Clear 59 15 N/A N/A Calm 30.35 1028 7 11 0.00 0.00
3:55 am 03:55 Clear 59 15 N/A N/A Calm 30.35 1028 10 16 0.00 0.00
4:15 am 04:15 Clear 57 14 N/A N/A Calm 30.35 1028 10 16 0.00 0.00
4:35 am 04:35 Clear 57 14 N/A N/A ENE 3 6 30.36 1028 10 16 0.00 0.00
4:55 am 04:55 Clear 57 14 N/A N/A E 3 6 30.36 1028 10 16 0.00 0.00
5:15 am 05:15 Clear 59 15 N/A N/A Calm 30.36 1028 10 16 0.00 0.00
5:35 am 05:35 Clear 57 14 N/A N/A Calm 30.38 1029 10 16 0.00 0.00
5:55 am 05:55 Clear 57 14 N/A N/A Calm 30.38 1029 10 16 0.00 0.00
6:15 am 06:15 Clear 57 14 N/A N/A Calm 30.39 1029 10 16 0.00 0.00
6:35 am 06:35 Sunny 57 14 N/A N/A Calm 30.40 1029 10 16 0.00 0.00
6:55 am 06:55 Sunny 57 14 N/A N/A Calm 30.41 1030 10 16 0.00 0.00
7:15 am 07:15 Sunny 57 14 N/A N/A Calm 30.42 1030 7 11 0.00 0.00
7:35 am 07:35 Sunny 57 14 N/A N/A Calm 30.43 1030 10 16 0.00 0.00
7:55 am 07:55 Sunny 61 16 N/A N/A Calm 30.43 1031 10 16 0.00 0.00
8:15 am 08:15 Sunny 64 17.8 63 17 95 95 Calm 30.43 1030 10 16 0.00 0.00
8:35 am 08:35 Sunny 69 20.3 62 16.9 81 81 SW 6 9 30.43 1031 10 16 0.00 0.00
8:55 am 08:55 Sunny 70 20.9 62 16.4 76 76 SW 7 11 30.43 1031 10 16 0.00 0.00
9:15 am 09:15 Sunny 72 22.3 62 16.7 71 71 SW 7 11 30.44 1031 10 16 0.00 0.00
9:35 am 09:35 Sunny 74 23.4 60 15.8 62 62 W 8 13 30.44 1031 10 16 0.00 0.00
9:55 am 09:55 Sunny 75 24 60 15.3 58 58 W 13 20 30.44 1031 10 16 0.00 0.00
10:15 am 10:15 Sunny 77 24.8 60 15.5 56 56 WSW 10 17 30.44 1031 10 16 0.00 0.00
10:35 am 10:35 Sunny 78 25.5 61 15.9 55 55 W 10 17 30.44 1031 10 16 0.00 0.00
10:55 am 10:55 Sunny 79 26.3 60 15.4 51 51 W 14 22 30.44 1031 10 16 0.00 0.00
11:15 am 11:15 Sunny 80 26.6 59 15 49 49 W 10 17 30.44 1031 10 16 0.00 0.00
11:35 am 11:35 Sunny 80 26.8 60 15.3 49 49 WSW 8 13 30.44 1031 10 16 0.00 0.00
11:55 am 11:55 Sunny 81 27 60 15.3 49 49 WNW 9 15 30.44 1031 10 16 0.00 0.00
12:15 pm 12:15 Sunny 82 27.5 60 15.3 47 47 SW 9 15 30.43 1030 10 16 0.00 0.00
12:35 pm 12:35 Sunny 81 27.4 61 15.9 49 49 WSW 7 11 30.43 1030 10 16 0.00 0.00
12:55 pm 12:55 Sunny 81 27.3 60 15.3 48 48 WNW 6 9 30.42 1030 10 16 0.00 0.00
1:15 pm 13:15 Sunny 82 27.7 60 15.5 47 47 WNW 10 17 30.42 1030 10 16 0.00 0.00
1:35 pm 13:35 Sunny 81 27.4 59 15.2 47 47 WSW 8 13 30.42 1030 10 16 0.00 0.00
1:55 pm 13:55 Sunny 82 27.8 59 15.1 46 46 SW 7 11 30.41 1030 10 16 0.00 0.00
2:15 pm 14:15 Sunny 83 28.1 58 14.4 43 43 W 6 9 30.41 1030 10 16 0.00 0.00
2:35 pm 14:35 Sunny 83 28.5 59 14.9 44 44 SW 7 11 30.39 1029 10 16 0.00 0.00
2:55 pm 14:55 Sunny 83 28.5 59 15 44 44 WSW 8 13 30.39 1029 10 16 0.00 0.00
3:15 pm 15:15 Partly Cloudy 84 28.8 59 15.2 44 44 SSW 10 17 30.39 1029 10 16 0.00 0.00
3:35 pm 15:35 Sunny 84 28.7 55 13 38 38 SW 10 17 30.38 1029 10 16 0.00 0.00
3:55 pm 15:55 Sunny 83 28.6 57 13.7 40 40 SSW 9 15 30.38 1029 10 16 0.00 0.00
4:15 pm 16:15 Partly Cloudy 83 28.5 58 14.6 43 43 SW 7 11 30.37 1029 10 16 0.00 0.00
4:35 pm 16:35 Sunny 83 28.6 56 13.6 40 40 WNW 5 7 30.37 1029 10 16 0.00 0.00
4:55 pm 16:55 Partly Cloudy 83 28.4 58 14.4 42 42 WSW 6 9 30.37 1028 10 16 0.00 0.00
5:15 pm 17:15 Sunny 83 28.6 57 14 41 41 W 7 11 30.36 1028 10 16 0.00 0.00
5:35 pm 17:35 Sunny 82 27.9 57 14 43 43 W 6 9 30.38 1029 10 16 0.00 0.00
5:55 pm 17:55 Sunny 82 27.9 59 15.2 46 46 W 7 11 30.38 1029 10 16 0.00 0.00
6:15 pm 18:15 Sunny 82 27.7 57 14.1 43 43 W 8 13 30.38 1029 10 16 0.00 0.00
6:35 pm 18:35 Sunny 82 27.5 56 13.6 42 42 W 8 13 30.38 1029 10 16 0.00 0.00
6:55 pm 18:55 Sunny 81 27.3 58 14.6 46 46 WSW 6 9 30.37 1028 10 16 0.00 0.00
7:15 pm 19:15 Sunny 80 26.9 60 15.5 50 50 W 6 9 30.37 1028 10 16 0.00 0.00
7:35 pm 19:35 Sunny 79 26.1 61 15.9 53 53 WNW 5 7 30.37 1028 10 16 0.00 0.00
7:55 pm 19:55 Sunny 78 25.4 64 17.5 62 62 Calm 30.37 1029 10 16 0.00 0.00
8:15 pm 20:15 Sunny 77 24.8 59 15.2 55 55 Calm 30.38 1029 10 16 0.00 0.00
8:35 pm 20:35 Sunny 73 23 65 18.4 75 75 Calm 30.38 1029 10 16 0.00 0.00
8:55 pm 20:55 Clear 71 21.5 65 18.3 82 82 Calm 30.39 1029 10 16 0.00 0.00
9:15 pm 21:15 Clear 69 20.6 65 18.1 86 86 Calm 30.39 1029 10 16 0.00 0.00
9:35 pm 21:35 Clear 68 20.1 64 17.7 86 86 Calm 30.39 1029 10 16 0.00 0.00
9:55 pm 21:55 Clear with Mist and Fog 66 19 64 17.5 91 91 Calm 30.40 1029 7 11 0.00 0.00
10:15 pm 22:15 Clear 66 18.8 63 17 89 89 Calm 30.41 1030 10 16 0.00 0.00
10:35 pm 22:35 Clear 65 18.3 63 17.1 93 93 Calm 30.41 1030 10 16 0.00 0.00
10:55 pm 22:55 Clear 65 18.2 61 15.9 87 87 Calm 30.40 1029 10 16 0.00 0.00
11:15 pm 23:15 Clear 64 17.7 62 16.5 93 93 N 3 6 30.40 1029 10 16 0.00 0.00
11:35 pm 23:35 Clear 63 17.1 61 16.1 94 94 Calm 30.40 1030 10 16 0.00 0.00
11:55 pm 23:55 Clear 63 17 60 15.8 93 93 NNE 3 6 30.40 1030 10 16 0.00 0.00

Powered by AerisWeather